GW2427 Weather Reports


time (UTC)temp
F
wind
direction
speed
knots
gust
knots
rain 1hr
in
rain 24hr
in
rain mn
in
humidity
%
barometer
mb
20260506015241 61 96 0.0 0.0 0.00 0.00 0.00 73 1015.4
20260506014738 62 80 0.0 0.0 0.00 0.00 0.00 73 1015.2
20260506014234 62 86 0.0 0.0 0.00 0.00 0.00 72 1015.2
20260506013732 62 81 0.0 0.0 0.00 0.00 0.00 72 1015.0
20260506013229 63 95 0.0 0.0 0.00 0.00 0.00 71 1015.2
20260506012725 63 120 0.0 0.0 0.00 0.00 0.00 70 1015.2
20260506012222 63 84 0.0 0.0 0.00 0.00 0.00 70 1015.2
20260506011719 64 83 0.0 0.0 0.00 0.00 0.00 69 1015.0
20260506011215 64 115 0.0 0.9 0.00 0.00 0.00 68 1015.2
20260506010714 65 89 0.0 0.0 0.00 0.00 0.00 68 1015.3
20260506010211 65 85 0.0 0.0 0.00 0.00 0.00 67 1015.3
20260506005708 66 98 0.0 0.0 0.00 0.00 0.00 66 1015.2
20260506005205 66 95 0.0 0.0 0.00 0.00 0.00 66 1015.3
20260506004701 66 96 0.0 0.0 0.00 0.00 0.00 65 1015.1
20260506004159 67 113 0.0 0.9 0.00 0.00 0.00 64 1014.9
20260506003654 67 87 0.0 0.0 0.00 0.00 0.00 63 1015.1
20260506003151 68 89 0.0 0.0 0.00 0.00 0.00 62 1014.9
20260506002646 68 149 0.0 0.9 0.00 0.00 0.00 62 1014.9
20260506002143 68 145 0.9 1.7 0.00 0.00 0.00 62 1014.9
20260506001638 69 73 0.0 0.0 0.00 0.00 0.00 61 1014.9
20260506001136 69 48 0.0 0.9 0.00 0.00 0.00 60 1015.0
20260506000633 69 71 0.0 0.9 0.00 0.00 0.00 60 1014.7
20260506000130 69 74 0.0 0.0 0.00 0.00 0.00 60 1015.1
20260505235629 69 351 0.0 0.9 0.00 0.00 0.00 59 1014.8
20260505235125 70 86 0.9 0.9 0.00 0.00 0.00 59 1015.0
20260505234617 70 155 0.9 0.9 0.00 0.00 0.00 59 1015.0
20260505234114 70 55 0.0 0.0 0.00 0.00 0.00 58 1014.9
20260505233612 70 79 0.0 0.0 0.00 0.00 0.00 58 1014.9
20260505233109 70 67 0.0 0.0 0.00 0.00 0.00 58 1014.9
20260505232606 71 129 0.9 1.7 0.00 0.00 0.00 59 1014.9
20260505232103 71 114 0.9 0.9 0.00 0.00 0.00 58 1014.8
20260505231600 71 194 0.0 0.0 0.00 0.00 0.00 59 1014.8
20260505231059 71 153 2.6 5.2 0.00 0.00 0.00 58 1014.8
20260505230556 71 181 4.3 6.1 0.00 0.00 0.00 58 1014.9
20260505230052 72 79 1.7 5.2 0.00 0.00 0.00 58 1014.7
20260505225549 72 343 0.0 0.0 0.00 0.00 0.00 58 1015.0
20260505225045 72 155 0.0 0.0 0.00 0.00 0.00 58 1014.9
20260505224542 73 149 0.0 0.0 0.00 0.00 0.00 57 1015.0
20260505224039 73 131 1.7 5.2 0.00 0.00 0.00 57 1015.3
20260505223536 74 157 0.9 1.7 0.00 0.00 0.00 56 1015.1
20260505223032 74 75 0.0 0.0 0.00 0.00 0.00 56 1015.3
20260505222529 74 147 0.0 0.0 0.00 0.00 0.00 56 1015.0
20260505222025 74 88 0.0 0.0 0.00 0.00 0.00 56 1014.8
20260505221522 75 130 0.0 0.0 0.00 0.00 0.00 55 1014.9
20260505221019 75 358 0.0 0.0 0.00 0.00 0.00 56 1014.9
20260505220516 74 174 0.9 1.7 0.00 0.00 0.00 56 1014.9
20260505220014 74 122 0.0 0.0 0.00 0.00 0.00 57 1014.8
20260505215512 75 98 0.0 0.9 0.00 0.00 0.00 56 1014.7
20260505215009 74 153 0.0 0.9 0.00 0.00 0.00 57 1014.4
20260505214508 73 282 0.0 0.0 0.00 0.00 0.00 58 1014.6
20260505214004 75 171 0.0 0.9 0.00 0.00 0.00 56 1014.6
20260505213502 75 113 0.9 2.6 0.00 0.00 0.00 57 1014.8
20260505212958 74 108 0.0 0.0 0.00 0.00 0.00 57 1014.9
20260505212454 75 190 1.7 4.3 0.00 0.00 0.00 56 1014.9
20260505211951 75 110 0.0 0.0 0.00 0.00 0.00 56 1014.9
20260505211449 76 269 0.9 2.6 0.00 0.00 0.00 55 1014.9
20260505210944 77 7 0.0 0.0 0.00 0.00 0.00 53 1014.9
20260505210442 77 142 0.0 1.7 0.00 0.00 0.00 54 1014.7
20260505205938 76 149 0.9 2.6 0.00 0.00 0.00 55 1014.8
20260505205437 76 79 0.0 1.7 0.00 0.00 0.00 54 1014.8
20260505204933 77 136 0.0 0.9 0.00 0.00 0.00 54 1014.5
20260505204431 77 39 0.0 0.0 0.00 0.00 0.00 54 1014.6
20260505203928 76 130 0.0 0.0 0.00 0.00 0.00 55 1014.8
20260505203425 77 65 0.0 0.0 0.00 0.00 0.00 54 1014.9
20260505202921 77 136 2.6 2.6 0.00 0.00 0.00 54 1014.6
20260505202417 78 84 0.0 0.9 0.00 0.00 0.00 53 1014.7
20260505201914 77 86 0.0 0.0 0.00 0.00 0.00 54 1014.7
20260505201411 77 168 0.0 0.0 0.00 0.00 0.00 54 1014.8
20260505200910 77 67 0.0 1.7 0.00 0.00 0.00 53 1014.9
20260505200406 77 257 0.9 2.6 0.00 0.00 0.00 54 1014.9
20260505195901 77 171 3.5 7.8 0.00 0.00 0.00 54 1014.8
20260505195359 78 89 0.0 0.0 0.00 0.00 0.00 53 1015.3
20260505194856 78 91 0.0 0.0 0.00 0.00 0.00 53 1015.0
20260505194354 78 133 0.9 1.7 0.00 0.00 0.00 53 1015.3
20260505193849 77 346 0.0 0.0 0.00 0.00 0.00 54 1015.2
20260505193347 77 61 0.0 0.0 0.00 0.00 0.00 54 1015.4
20260505192844 78 303 0.9 2.6 0.00 0.00 0.00 52 1015.3
20260505192343 78 359 0.0 0.0 0.00 0.00 0.00 53 1015.4
20260505191840 79 73 0.9 1.7 0.00 0.00 0.00 51 1015.3
20260505191338 79 87 0.0 0.0 0.00 0.00 0.00 52 1015.4
20260505190834 78 128 0.0 0.0 0.00 0.00 0.00 52 1015.4
20260505190330 78 101 0.0 0.0 0.00 0.00 0.00 51 1015.4
20260505185826 78 183 1.7 2.6 0.00 0.00 0.00 50 1015.4
20260505185322 79 67 0.0 2.6 0.00 0.00 0.00 50 1016.0
20260505184818 78 162 0.0 0.0 0.00 0.00 0.00 50 1015.7
20260505184316 79 196 0.9 1.7 0.00 0.00 0.00 49 1015.8
20260505183813 77 203 0.0 0.0 0.00 0.00 0.00 49 1016.0
20260505183310 78 116 0.0 0.0 0.00 0.00 0.00 49 1016.0
20260505182806 77 195 2.6 2.6 0.00 0.00 0.00 51 1015.6
20260505182305 77 347 0.0 0.0 0.00 0.00 0.00 50 1015.8
20260505181800 79 320 0.0 0.0 0.00 0.00 0.00 48 1016.0
20260505181257 80 139 3.5 7.0 0.00 0.00 0.00 49 1015.8
20260505180753 78 70 2.6 6.1 0.00 0.00 0.00 50 1015.8
20260505180250 78 83 0.0 0.0 0.00 0.00 0.00 51 1015.9
20260505175747 76 153 0.9 4.3 0.00 0.00 0.00 53 1016.2
20260505175243 77 183 0.0 0.0 0.00 0.00 0.00 51 1015.8
20260505174740 78 162 0.0 0.9 0.00 0.00 0.00 51 1015.7
20260505174237 78 77 0.0 0.0 0.00 0.00 0.00 51 1015.9
20260505173733 78 87 0.0 0.9 0.00 0.00 0.00 51 1015.9
20260505173230 79 179 0.0 0.9 0.00 0.00 0.00 51 1016.1
20260505172727 78 68 0.0 0.0 0.00 0.00 0.00 51 1016.0
20260505172224 79 123 6.1 7.8 0.00 0.00 0.00 51 1015.9
20260505171723 78 122 0.9 2.6 0.00 0.00 0.00 52 1015.9
20260505171221 78 67 0.0 0.0 0.00 0.00 0.00 52 1016.2
20260505170718 78 65 0.0 0.0 0.00 0.00 0.00 52 1015.8
20260505170215 78 150 1.7 4.3 0.00 0.00 0.00 52 1016.1
20260505165710 78 117 0.9 2.6 0.00 0.00 0.00 52 1016.0
20260505165206 78 287 1.7 2.6 0.00 0.00 0.00 52 1016.0
20260505164701 77 74 0.0 0.9 0.00 0.00 0.00 52 1015.9
20260505164158 77 180 1.7 4.3 0.00 0.00 0.00 53 1016.0
20260505163656 78 268 2.6 6.1 0.00 0.00 0.00 52 1016.0
20260505163154 77 178 0.0 0.9 0.00 0.00 0.00 53 1016.3
20260505162652 77 201 0.9 2.6 0.00 0.00 0.00 52 1016.1
20260505162149 78 96 0.0 0.0 0.00 0.00 0.00 52 1016.3
20260505161646 78 144 0.9 2.6 0.00 0.00 0.00 53 1016.3
20260505161144 77 105 0.9 1.7 0.00 0.00 0.00 54 1016.2
20260505160641 76 103 0.9 2.6 0.00 0.00 0.00 53 1016.4
20260505160138 77 57 0.0 0.0 0.00 0.00 0.00 53 1016.5
20260505153118 76 60 0.0 0.0 0.00 0.00 0.00 52 1016.5
20260505152614 77 204 0.0 0.0 0.00 0.00 0.00 52 1016.6
20260505152110 77 105 0.0 0.0 0.00 0.00 0.00 53 1016.4
20260505151606 74 149 0.0 0.0 0.00 0.00 0.00 56 1016.5
20260505151103 75 311 0.0 0.0 0.00 0.00 0.00 53 1016.5
20260505150559 76 116 0.0 0.0 0.00 0.00 0.00 54 1016.7
20260505140525 73 300 0.0 0.0 0.00 0.00 0.00 59 1016.5
20260505124938 68 90 0.0 0.0 0.00 0.00 0.00 84 1016.4
20260505124435 68 345 0.0 0.0 0.00 0.00 0.00 84 1016.4
20260505123931 68 54 0.0 0.0 0.00 0.00 0.00 84 1016.3
20260505123428 66 76 0.0 0.0 0.00 0.00 0.00 84 1016.4
20260505122924 65 97 0.0 0.0 0.00 0.00 0.00 85 1016.4
20260505122421 64 108 0.0 0.0 0.00 0.00 0.00 85 1016.3
20260505121918 63 97 0.0 0.0 0.00 0.00 0.00 85 1016.3
20260505121415 62 86 0.0 0.0 0.00 0.00 0.00 85 1016.2
20260505120911 61 73 0.0 0.0 0.00 0.00 0.00 85 1016.4
20260505120407 59 93 0.0 0.0 0.00 0.00 0.00 85 1016.4
20260505115906 57 86 0.0 0.0 0.00 0.00 0.00 85 1016.5
20260505115403 55 88 0.0 0.0 0.00 0.00 0.00 85 1016.4
20260505114901 54 84 0.0 0.0 0.00 0.00 0.00 85 1016.4
20260505114357 54 89 0.0 0.0 0.00 0.00 0.00 85 1016.3
20260505113853 53 87 0.0 0.0 0.00 0.00 0.00 85 1016.3
20260505113350 52 87 0.0 0.0 0.00 0.00 0.00 84 1016.3
20260505112845 52 82 0.0 0.0 0.00 0.00 0.00 84 1016.2
20260505112344 51 82 0.0 0.0 0.00 0.00 0.00 84 1016.1
20260505111839 50 82 0.0 0.0 0.00 0.00 0.00 84 1016.0
20260505111335 50 82 0.0 0.0 0.00 0.00 0.00 84 1016.0
20260505110831 49 82 0.0 0.0 0.00 0.00 0.00 84 1015.9
20260505110329 49 82 0.0 0.0 0.00 0.00 0.00 84 1015.7
20260505101803 48 85 0.0 0.0 0.00 0.00 0.00 84 1015.3
20260505101258 48 81 0.0 0.0 0.00 0.00 0.00 84 1015.3
20260505100755 48 81 0.0 0.0 0.00 0.00 0.00 84 1015.3
20260505100252 48 81 0.0 0.0 0.00 0.00 0.00 84 1015.3
20260505095748 48 81 0.0 0.0 0.00 0.00 0.00 84 1015.3
20260505095246 48 79 0.0 0.0 0.00 0.00 0.00 84 1015.2
20260505094741 48 81 0.0 0.0 0.00 0.00 0.00 83 1015.2
20260505094238 49 81 0.0 0.0 0.00 0.00 0.00 83 1015.1
20260505093734 49 81 0.0 0.0 0.00 0.00 0.00 83 1015.0
20260505093231 49 79 0.0 0.0 0.00 0.00 0.00 83 1014.8
20260505092728 49 80 0.0 0.0 0.00 0.00 0.00 83 1014.7
20260505092227 49 81 0.0 0.0 0.00 0.00 0.00 83 1014.6
20260505091723 49 85 0.0 0.0 0.00 0.00 0.00 83 1014.8
20260505091222 49 81 0.0 0.0 0.00 0.00 0.00 83 1014.7
20260505090719 49 80 0.0 0.0 0.00 0.00 0.00 83 1014.7
20260505090217 49 81 0.0 0.0 0.00 0.00 0.00 83 1014.7
20260505085714 49 85 0.0 0.0 0.00 0.00 0.00 83 1014.3
20260505085212 49 81 0.0 0.0 0.00 0.00 0.00 83 1014.7
20260505084709 50 81 0.0 0.0 0.00 0.00 0.00 83 1014.5
20260505084209 50 80 0.0 0.0 0.00 0.00 0.00 83 1014.6
20260505083705 49 79 0.0 0.0 0.00 0.00 0.00 83 1014.7
20260505083202 50 82 0.0 0.0 0.00 0.00 0.00 83 1014.7
20260505082657 50 82 0.0 0.0 0.00 0.00 0.00 83 1014.5
20260505082155 50 83 0.0 0.0 0.00 0.00 0.00 83 1014.8
20260505081650 50 95 0.0 0.0 0.00 0.00 0.00 83 1014.5
20260505081148 50 84 0.0 0.0 0.00 0.00 0.00 83 1014.5
20260505080645 50 81 0.0 0.0 0.00 0.00 0.00 83 1014.4
20260505080141 50 81 0.0 0.0 0.00 0.00 0.00 83 1014.5
20260505075637 51 81 0.0 0.0 0.00 0.00 0.00 83 1014.5
20260505075134 51 77 0.0 0.0 0.00 0.00 0.00 83 1014.5
20260505074631 51 76 0.0 0.0 0.00 0.00 0.00 82 1014.4
20260505074128 51 81 0.0 0.0 0.00 0.00 0.00 82 1014.6
20260505073626 51 84 0.0 0.0 0.00 0.00 0.00 82 1014.6
20260505073124 51 76 0.0 0.0 0.00 0.00 0.00 82 1014.4
20260505072619 51 79 0.0 0.0 0.00 0.00 0.00 82 1014.5
20260505072116 51 79 0.0 0.0 0.00 0.00 0.00 82 1014.5
20260505071611 51 81 0.0 0.0 0.00 0.00 0.00 82 1014.4
20260505071109 51 81 0.0 0.0 0.00 0.00 0.00 82 1014.3
20260505070606 51 81 0.0 0.0 0.00 0.00 0.00 82 1014.3
20260505065558 51 82 0.0 0.0 0.00 0.00 0.00 82 1014.3
20260505065055 51 91 0.0 0.0 0.00 0.00 0.00 82 1014.4
20260505064552 51 88 0.0 0.0 0.00 0.00 0.00 81 1014.6
20260505064051 52 85 0.0 0.0 0.00 0.00 0.00 81 1014.3
20260505063547 52 85 0.0 0.0 0.00 0.00 0.00 81 1014.7
20260505050144 52 83 0.0 0.0 0.00 0.00 0.00 79 1015.4
20260505041613 53 81 0.0 0.0 0.00 0.00 0.00 78 1015.3
20260505041110 53 81 0.0 0.0 0.00 0.00 0.00 78 1015.5
20260505040608 53 81 0.0 0.0 0.00 0.00 0.00 78 1015.3
20260505040105 53 81 0.0 0.0 0.00 0.00 0.00 77 1015.4
20260505035601 53 81 0.0 0.0 0.00 0.00 0.00 77 1015.5
20260505035057 53 83 0.0 0.0 0.00 0.00 0.00 77 1015.4
20260505034554 53 82 0.0 0.0 0.00 0.00 0.00 77 1015.4
20260505034051 54 84 0.0 0.0 0.00 0.00 0.00 77 1015.5
20260505033548 54 86 0.0 0.0 0.00 0.00 0.00 76 1015.5
20260505033046 54 82 0.0 0.0 0.00 0.00 0.00 76 1015.5
20260505032544 54 81 0.0 0.0 0.00 0.00 0.00 76 1015.4
20260505032040 55 82 0.0 0.0 0.00 0.00 0.00 76 1015.3
20260505031537 55 81 0.0 0.0 0.00 0.00 0.00 75 1015.6
20260505031033 55 82 0.0 0.0 0.00 0.00 0.00 75 1015.6
20260505030531 55 82 0.0 0.0 0.00 0.00 0.00 75 1015.5
20260505030026 55 84 0.0 0.0 0.00 0.00 0.00 75 1015.6
20260505025522 55 81 0.0 0.0 0.00 0.00 0.00 74 1015.6
20260505025022 55 81 0.0 0.0 0.00 0.00 0.00 74 1015.6
20260505024518 55 81 0.0 0.0 0.00 0.00 0.00 74 1015.5
20260505024015 56 82 0.0 0.0 0.00 0.00 0.00 73 1015.7
20260505023512 56 84 0.0 0.0 0.00 0.00 0.00 73 1015.5
20260505023010 56 87 0.0 0.0 0.00 0.00 0.00 73 1015.5
20260505022507 57 80 0.0 0.0 0.00 0.00 0.00 72 1015.4
20260505022004 57 82 0.0 0.0 0.00 0.00 0.00 72 1015.6
20260505021501 57 89 0.0 0.0 0.00 0.00 0.00 72 1015.5
20260505020956 57 83 0.0 0.0 0.00 0.00 0.00 71 1015.7
20260505020452 57 89 0.0 0.0 0.00 0.00 0.00 71 1015.4
20260505015949 58 93 0.0 0.0 0.00 0.00 0.00 70 1015.5
20260505015446 58 83 0.0 0.0 0.00 0.00 0.00 70 1015.5